Location: Hiram
(41.3130°N, 81.1440°W)
Time: 03:47:36
(UTC-04:00)

Iridium 62 - Visible Passes

Search period start: 19 September 2014 00:00
Search period end: 29 September 2014 00:00
Orbit: 776 x 779 km, 86.4° (Epoch: 18 September)

Date Brightness Start Highest point End Pass type
(mag) Time Alt. Az. Time Alt. Az. Time Alt. Az.
19 Sep 6.9 20:57:43 10° SSW 21:02:42 46° W 21:07:42 10° N visible
20 Sep 5.9 20:23:54 10° S 20:29:06 84° W 20:34:20 10° N visible
21 Sep 6.0 19:50:36 10° SSE 19:55:38 53° E 20:00:41 10° NNE visible
21 Sep 8.6 21:33:13 10° WSW 21:36:41 18° WNW 21:40:11 10° NNW visible
22 Sep 9.1 06:22:05 10° NE 06:24:49 14° ENE 06:27:31 10° ESE visible
22 Sep 7.7 20:58:17 10° SW 21:02:53 32° W 21:07:32 10° NNW visible
23 Sep 6.5 20:24:07 10° SSW 20:29:13 58° W 20:34:22 10° N visible
24 Sep 5.8 19:50:30 10° S 19:55:41 77° E 20:00:53 10° N visible
24 Sep 9.1 21:34:55 10° W 21:37:01 12° WNW 21:39:08 10° NW visible
25 Sep 8.8 06:21:18 10° NNE 06:25:07 20° ENE 06:28:56 10° ESE visible
25 Sep 8.4 20:59:06 10° SW 21:03:08 23° WNW 21:07:11 10° NNW visible
26 Sep 9.4 05:49:51 10° NE 05:51:12 11° ENE 05:52:33 10° E visible
26 Sep 7.3 20:24:31 10° SSW 20:29:23 40° W 20:34:17 10° NNW visible
27 Sep 6.1 19:50:35 10° S 19:55:46 75° W 20:00:59 10° N visible
28 Sep 8.1 06:20:53 10° NNE 06:25:23 29° E 06:29:51 10° SE visible
28 Sep 8.9 21:00:19 10° WSW 21:03:25 16° WNW 21:06:32 10° NW visible
